Flag for South Korea Weather past 2 weeks in Cheongju, South Korea

Now
79 °F

Partly sunny.


Feels Like: 81 °F
Forecast: 72 / 89 °F
Wind: 5 mph from Southeast

Location: Chongju Ab

Current Time: Jul 29, 2014 at 2:44:45 PM

Latest Report: Jul 29, 2014 at 2:00 PM


Visibility: N/A

Pressure: 29.80 "Hg

Humidity: 70%

Dew point: 68 °F

Location of CheongjuLocation

Historic Weather in Cheongju — Graph

°F

Cheongju temperature yesterday

Maximum temperature yesterday: 86 °F (at 4:00 PM)
Minimum temperature yesterday: 64 °F (at 3:00 AM)
Average temperature yesterday: 75 °F

Past Weeks' High & Low Weather Summary

 TemperatureHumidityPressure
High93 °F (Jul 25, 2:00 PM)94% (Jul 15, 2:00 AM)29.95 "Hg (Jul 15, 2:00 AM)
Low64 °F (Jul 27, 2:45 AM)43% (Jul 28, 6:00 PM)29.59 "Hg (Jul 25, 8:00 PM)
Average78 °F77%29.80 "Hg
* Reported Jul 14 1:00 PM — Jul 29 1:00 PM, Cheongju, Weather by CustomWeather, © 2014

Note: Actual official high and low records may vary slightly from our data, if they occured in-between our weather recording intervals... More about our weather records

Advertising

Cheongju weather history for previous 24 hours

 ConditionsComfort  
Time TempWeatherWind HumidityBarometerVisibility
1:00 PM
Jul 29
75 °FOvercast.5 mph74%29.83 "HgN/A
12:00 PM77 °FMore clouds than sun.2 mph74%29.83 "HgN/A
11:00 AM75 °FPartly sunny.3 mph78%29.83 "HgN/A
10:00 AM73 °FPartly sunny.2 mph83%29.83 "Hg6 mi
9:00 AM72 °FLight rain. Overcast.2 mph83%29.83 "Hg4 mi
8:00 AM70 °FLight rain. Overcast.5 mph88%29.86 "Hg5 mi
7:00 AM72 °FLight rain. Overcast.3 mph88%29.83 "Hg4 mi
6:00 AM72 °FThunderstorms. Fog.6 mph88%29.80 "Hg2 mi
5:00 AM72 °FFog.3 mph88%29.82 "Hg2 mi
4:00 AM72 °FFog.2 mph88%29.81 "Hg2 mi
3:00 AM73 °FFog.1 mph83%29.80 "Hg3 mi
2:00 AM73 °FLight rain. Fog.2 mph83%29.79 "Hg3 mi
1:00 AM73 °FFog.6 mph83%29.77 "Hg3 mi
12:00 AM73 °FFog.3 mph83%29.78 "Hg4 mi
11:00 PM
Jul 28
75 °FClear.1 mph69%29.77 "Hg5 mi
10:00 PM73 °FClear.2 mph78%29.77 "Hg6 mi
9:00 PM77 °FClear.3 mph65%29.74 "Hg10 mi
8:00 PM79 °FPassing clouds.2 mph54%29.74 "HgN/A
7:00 PM82 °FPartly sunny.3 mph48%29.74 "HgN/A
6:00 PM84 °FPartly sunny.2 mph43%29.74 "HgN/A
5:00 PM84 °FPartly sunny.6 mph45%29.74 "HgN/A
4:00 PM86 °FBroken clouds.1 mph52%29.74 "HgN/A
3:00 PM84 °FBroken clouds.5 mph55%29.77 "HgN/A
2:00 PM84 °FBroken clouds.3 mph58%29.77 "Hg6 mi
Weather by CustomWeather, © 2014

See weather overviewHow to use our weather pages